Regional Weather Roundup
Issued by NWS Wakefield, VA

Home | Current Version | Previous Version | Graphics & Text | Print | Product List | Glossary On
Versions: 1 2 3 4 5 6 7 8 9 10 11 12 13 14 15 16 17 18 19 20 21 22 23 24 25 26 27 28 29 30 31 32 33 34 35 36 37 38 39 40 41 42 43 44 45 46 47 48 49 50
039
ASUS41 KAKQ 201115
RWRAKQ

REGIONAL WEATHER ROUNDUP
NATIONAL WEATHER SERVICE WAKEFIELD VA
600 AM EST FRI JAN 20 2017

Note: "fair" indicates few or no clouds below 12,000 feet with no
significant weather and/or obstructions to visibility. * = Denotes
station may not report precipitation (e.g., rain,snow,etc.),
thunder or fog.

VAZ042-051-052>054-056-201200-
NORTHERN VIRGINIA

CITY           SKY/WX    TMP DP  RH WIND       PRES   REMARKS
WASH NATIONAL  CLOUDY    40  37  89 E3        29.99S
DULLES         CLOUDY    35  33  92 CALM      29.96F
FORT BELVOIR   CLOUDY    35  33  94 CALM      29.98S
QUANTICO       CLOUDY    39  38  96 CALM      29.99R
FREDERICKSBRG* CLOUDY    38  38 100 CALM      29.96F
STAFFORD*      CLOUDY    36  36 100 CALM      30.00F
WARRENTON      CLOUDY    38  35  89 NE5       29.94F
CULPEPER*      CLOUDY    39  38  96 CALM      29.95F
MANASSAS*      NOT AVBL
LEESBURG*      CLOUDY    37  37 100 MISG      29.98R
WINCHESTER     CLOUDY    36  34  93 CALM      29.91S
FRONT ROYAL*   CLOUDY    36  36 100 CALM      29.89F
LURAY*         CLOUDY    39  39 100 CALM      29.89F
$$

VAZ048-049-060>072-079>083-201200-
CENTRAL AND SOUTH CENTRAL VIRGINIA

CITY           SKY/WX    TMP DP  RH WIND       PRES   REMARKS
RICHMOND       CLOUDY    42  40  92 SE6       29.96F
CHESTERFIELD*  CLOUDY    43  27  52 E6        29.96F
PETERSBURG*    NOT AVBL
HANOVER        CLOUDY    42  37  82 E3        29.97F
TAPPAHANNOCK*  PTCLDY    41  38  89 CALM      29.99R
QUINTON*       CLOUDY    40  40  97 MISG      29.97S
CHARLOTTSVILLE CLOUDY    43  38  82 N5        29.91F
GORDONSVILLE*  CLOUDY    40  39  96 CALM      29.93F
ORANGE*          N/A     41  41 100 CALM      29.96S
LOUISA*        CLOUDY    45  41  87 CALM      29.93S
BUMPASS*       CLOUDY    40  39  99 CALM      29.95F
FARMVILLE*     CLOUDY    43  41  93 CALM      29.93R
CREWE*         PTSUNNY   42  42 100 CALM      29.94S
FORT PICKETT*  CLOUDY    42  38  88 S5        29.95R
CHASE CITY*    PTSUNNY   43  42  95 CALM      29.93R
CLARKSVILLE*   PTSUNNY   43  43 100 E3        29.92S
SOUTH HILL*    CLOUDY    42  42  99 S3        30.00R
LAWRENCEVILLE* FAIR      41  40  97 CALM      29.96R
EMPORIA*       CLOUDY    41  41 100 E3        29.98S FOG
$$

VAZ088>098-201200-
SOUTHEAST VIRGINIA

CITY           SKY/WX    TMP DP  RH WIND       PRES   REMARKS
NORFOLK        CLOUDY    44  42  93 S5        29.98S
VIRGINIA BEACH CLOUDY    40  38  93 CALM      29.98S
NORFOLK NAVAL  CLOUDY    44  41  89 S3        30.00R FOG
WEST POINT*    CLOUDY    41  38  90 SE3       30.00S
SALUDA*        FAIR      40  39  97 CALM      29.98F
NEWPORT NEWS   MOCLDY    41  39  93 CALM      29.99R
LANGLEY AFB    CLOUDY    42  41  96 CALM      29.98S
FORT EUSTIS    CLOUDY    43  39  86 CALM      29.97R
WILLIAMSBURG*  CLOUDY    45  43  93 CALM      30.00S
HR EXEC AP*    FAIR      39  37  93 CALM      29.99R
FRANKLIN*      CLOUDY    43  39  86 E3        29.98F
US460-WAKEFLD  CLOUDY    43  40  89 CALM      29.97F
$$

VAZ020-022-025-037-045-201200-
WEST CENTRAL AND SOUTHWEST VIRGINIA

CITY           SKY/WX    TMP DP  RH WIND       PRES   REMARKS
STAUNTON*      CLOUDY    41  39  93 CALM      29.91S
WAYNESBORO*    PTSUNNY   44  37  76 SE6       29.89R
HOT SPRINGS VA CLOUDY    43  34  70 S9        29.84S
LYNCHBURG      CLOUDY    45  40  82 NE3       29.92S
DANVILLE       CLOUDY    43  41  93 E3        29.90F
SOUTH BOSTON*  PTSUNNY   42  41  95 NE3       29.91F
MARTINSVILLE   CLOUDY    42  39  89 CALM      29.91S
ROANOKE        CLOUDY    46  39  76 S6        29.91R
BLACKSBURG     RAIN      45  41  86 CALM      29.90R
DUBLIN*        HVY RAIN  47  42  83 CALM      29.89R
MARION*        LGT RAIN  49  46  92 E8        29.86S
HILLSVILLE*    RAIN      44  43  96 CALM      29.88R
RICHLANDS*     RAIN     N/A N/A N/A SW8G16    29.82R
WISE*          LGT RAIN  52  52 100 S13       29.80R
ABINGDON*      RAIN      54  52  94 NW8       29.84R
$$

MDZ021>025-VAZ099-100-201200-
SOUTHERN MARYLAND AND THE DELMARVA PENINSULA

CITY           SKY/WX    TMP DP  RH WIND       PRES   REMARKS
PATUXENT RIVER CLOUDY    35  34  96 CALM      29.99S
BAY BRIDGE APT CLOUDY    36  34  93 CALM      30.00S FOG
LEONARDTOWN    CLOUDY    36  34  93 CALM      30.01R
DOVER          CLOUDY    34  34 100 CALM      29.98F
GEORGETOWN     CLOUDY    36  33  89 CALM      30.00S
EASTON         CLEAR     36  32  87 CALM      30.03S
CAMBRIDGE      CLOUDY    32  32 100 CALM      30.00R
SALISBURY      CLOUDY    33  33 100 CALM      29.99R FOG
OCEAN CITY     PTCLDY    34  34 100 CALM      29.99F FOG
WALLOPS ISLAND CLOUDY    35  35 100 CALM      30.00R
ACCOMACK*      PTCLDY    37  35  95 SW3       30.00R
$$

NCZ012>017-030>032-201200-
NORTH CENTRAL AND EASTERN NORTH CAROLINA

CITY           SKY/WX    TMP DP  RH WIND       PRES   REMARKS
ROANOKE RAPIDS FAIR      41  41 100 CALM      29.95F FOG
RALEIGH        CLOUDY    48  43  82 E7        29.91F
ELIZABETH CITY CLOUDY    43  42  97 S3        29.99S
AHOSKIE*       CLOUDY    42  40  93 CALM      29.98R
EDENTON*       CLOUDY    46  42  88 CALM      29.99S
CURRITUCK*     CLOUDY    42  42 100 CALM      30.00R FOG
KILL DEVIL HLS NOT AVBL
MANTEO         CLOUDY    42  42 100 CALM      29.99F FOG
CAPE HATTERAS  CLOUDY    48  42  80 NE6       29.97F
TARBORO*       NOT AVBL
GOLDSBORO      CLOUDY    44  44 100 E7        29.91F
WASHINGTON     CLOUDY    43  41  91 E3          N/A
GREENVILLE     CLOUDY    43  43 100 CALM      29.98S FOG
NEW BERN       CLOUDY    47  44  90 E6        29.96F
WILMINGTON     CLOUDY    53  51  93 NE3       29.93S
$$

VAZ048-201200-
ELSEWHERE

CITY           SKY/WX    TMP DP  RH WIND       PRES   REMARKS
HARRISBURG PA  CLOUDY    33  32  96 E3        29.97S
BALTIMORE      MOCLDY    33  33 100 CALM      29.99S
ANNAPOLIS      CLOUDY    36  34  92 CALM      30.00R
ANDREWS AFB    CLOUDY    36  34  92 CALM      29.96F
PHILADELPHIA   CLOUDY    33  31  92 CALM      30.01S
HENDERSON NC   CLOUDY    42  39  88 S5        29.93R
GREENSBORO     CLOUDY    50  42  74 SE10      29.86R
ROCKY MOUNT    CLOUDY    42  42 100 CALM      29.95F
$$

VAZ100-201200-
MARINE

STATION/POSITION TIME  TEMP    WIND        PRES    WAVE   SWELL
                       AIR SEA DIR/SP/G            HT/PER HT/PER
                 (UTC) (F)     (DEG/KT/KT) (MB)    (FT/S) (FT/S)
CAPE MAY NJ      1042   37 41  100/  3/  4 1015.4R
LEWES DE         1042   39 42  110/  3/  4 1015.3F
OCEAN-CITY-INLET 1042   42 42   80/  3/  3 1015.8F
WACHAPREAGUE VA  1042   39 46   CALM  /  1 1015.6R
THOMAS POINT MD  1100   38 39   30/  2/  2   N/A
GOOSES REEF MD   1050   39     220/  2/  2 1016.4R
COVE POINT MD    1042   40     180/  4/  4 1016.2R
SOLOMONS ISLAND  1042   39 41   60/  1/  2   N/A
BISHOPS HEAD MD  1042   40 44  110/  2/  3 1015.9R
PINEY POINT MD   1048          120/  5/  6   N/A
POTOMAC MD       1050   41     160/  2/  4 1014.6F
CAMBRIDGE MD     1042   37 40  200/  2/  3 1015.1R
LEWISETTA VA     1042   42 43  120/  4/  5 1015.2S
RAPPAHANNOCK LGT 1048          150/  3/  3 1016.2R
STINGRAY PT      1050   41     140/  2/  2 1015.7S
YORK RVR RNG VA  1042   43     180/  5/  5 1014.5F
YORKTOWN VA      1042   43 42  170/  3/  5 1014.9F
JAMESTOWN VA     1040   44     140/  6/  8   N/A
DOMINION TERM VA 1042   44     140/  5/  5 1015.0F
KIPTOPEKE VA     1048      43  130/  3/  4   N/A
CHES BAY BRIDGE  1036   44 45  180/  3/  5 1015.2F
CAPE HENRY VA    1036   44     150/  6/  7   N/A
WILLOUBY STN VA  1036   44     160/  5/  5 1016.0F
S CRANEY ISL VA  1036   44     180/  4/  5 1015.1S
CAPE HENRY BUOY  1042      48                N/A     3/12   2/12
OFFSHORE WE BUOY 1051      49                N/A     4/11   3/11
64NM E OF VA BCH 1050   51 56  220/  2/  4 1015.0F   6/13   5/13
DUCK PIER NC     1036   45 45  130/  4/  4 1014.7F
44100 DUCK FRF   1005      47                N/A     5/11   3/11
44056 DUCK FRF   1030      45                N/A     4/11   2/11
OREGON INLET NC  1036   45 49  110/  2/  2 1015.2F
HATTERAS NC      1036   49 55   70/  4/  6 1014.7F
DIAMOND SHLS NC  1050   59 76   70/  6/  8 1015.0F   5/13   5/13
CAPE LOOKOUT NC  1000   61      90/  9/  9 1013.8F
$$




USA.gov is the U.S. government's official web portal to all federal, state and local government web resources and services.